Weather in Rozovoye

Russia / Saratov Oblast     51°13′25″N   46°46′50″E
temp.,
°C
wind,
m/s
gust,
m/s
humid.,
%
clouds,
%
prec.,
mm/h
press.,
hPa
HPBL,
m
30 november, tue
tue3001:00+6s101976100 0.0 1008630
04:00+6sse112379100 0.4 1003607
07:00+6s112275100 0.3 1000766
10:00+6s101985100 3.9 998654
13:00+8ssw112088100 1.0 997927
16:00+9ssw713912 1.4 997427
19:00+8ssw612905 0.1 998234
22:00+6sw5128665 0.1 998284
1 december, wed
wed101:00+4ssw338755 0.0 99726
04:00+4sse1191100 0.0 99510
07:00+4ese3798100 1.4 991214
10:00+7sse51395100 5.8 986916
13:00+1nw111796100 1.6 988653
16:00+2wnw8137916 1.9 994864
19:00−1w613765 0.0 999560
22:00−2wsw511785 0.0 1001428
2 december, thu
thu201:00−2sw4980100 0.0 1003287
04:00−2sw49835 0.0 1004272
07:00−2ssw5118617 0.0 1005366
10:00−1wsw5108897 0.0 1008656
13:00+1wsw7107292 0.1 10091236
16:000wsw610705 0.1 1011682
19:00−2sw5118220 0.0 1012335
22:00−1sw6128366 0.0 1013392
3 december, fri
fri301:00−1ssw6128486 0.0 1014377
04:000ssw7148681 0.0 1013434
07:00+1ssw61392100 0.0 1013375
10:00+2sw61293100 0.0 1015395
13:00+4sw51291100 0.0 1016636
16:00+4ssw51096100 0.0 1017332
19:00+4ssw51294100 0.0 1018331
22:00+4ssw61480100 0.0 1018379
4 december, sat
sat401:00+5ssw81774100 0.0 1018422
04:00+3s7188360 0.0 1018423
07:00+3s8189124 0.0 1018432
10:00+3s91894100 0.0 1017504
13:00+5ssw91686100 0.0 1017618
16:00+6s91586100 0.0 1016559
19:00+6s81589100 0.0 1016571
22:00+6s81588100 0.0 1016499